DateTimeUTC,F1_A11,F1_S11,BsB_S11,BsG_S11,BsR_S11,BbsB_S11,BbsG_S11,BbsR_S11,BaB_A11,BaG_A11,BaR_A11,Tu_S11,T_S11,Uu_S11,U_S11,P_S11,T1_A11
2021-08-02T04:00:00Z,00000200,20000000,,,,,,,0000.14,-000.38,0000.00,18.1,25.3,02.3,01.5,0672.6,31.0
2021-08-02T04:01:00Z,00000200,20000000,,,,,,,0000.52,0000.15,0000.30,18.1,25.3,02.3,01.5,0672.6,31.0
2021-08-02T04:02:00Z,00000200,20000000,,,,,,,-000.07,0000.60,0000.68,18.1,25.3,02.3,01.5,0672.6,31.0
2021-08-02T04:03:00Z,00000200,60000000,,,,,,,0000.16,-000.12,-000.39,18.1,25.3,02.3,01.5,0672.6,31.0
2021-08-02T04:04:00Z,00000200,40000000,0002.35,0001.69,0001.07,0000.27,0000.01,0000.39,0000.54,0000.51,0000.36,18.5,25.2,02.4,01.6,0673.5,31.0
2021-08-02T04:05:00Z,00000200,00000000,0001.86,0001.80,0000.90,0000.36,0000.31,0000.19,0000.35,0000.42,0000.41,18.6,25.2,02.5,01.6,0673.6,31.0
2021-08-02T04:06:00Z,00000200,00000000,0002.41,0001.77,0000.83,0000.90,0000.30,0000.14,0000.57,0000.46,0000.05,18.6,25.2,02.5,01.7,0673.6,31.0
2021-08-02T04:07:00Z,00000200,00000000,0002.15,0001.83,0000.91,0000.37,-000.11,0000.40,0000.49,0000.22,0000.46,18.7,25.2,02.5,01.7,0673.6,31.0
2021-08-02T04:08:00Z,00000200,00000000,0003.22,0002.49,0001.12,0000.47,0000.01,0000.08,0000.59,0000.52,0000.53,18.7,25.2,02.4,01.6,0673.6,31.0
2021-08-02T04:09:00Z,00000200,00000000,0002.52,0001.95,0001.29,0000.52,0000.45,0000.51,0000.69,0000.52,0000.05,18.6,25.1,02.4,01.6,0673.6,31.0
2021-08-02T04:10:00Z,00000200,00000000,0001.70,0001.65,0001.50,0000.68,-000.14,0000.50,0000.03,0000.35,0000.18,18.6,25.1,02.3,01.6,0673.6,31.0
2021-08-02T04:11:00Z,00000200,00000000,0003.56,0002.21,0001.14,0000.46,0000.25,0000.13,0000.78,0000.63,0000.61,18.6,25.1,02.3,01.6,0673.5,31.0
2021-08-02T04:12:00Z,00000200,00000000,0003.23,0002.27,0001.47,0000.77,0000.18,0000.12,0000.89,0000.92,0000.35,18.5,25.1,02.4,01.6,0673.5,31.0
2021-08-02T04:13:00Z,00000200,00000000,0003.56,0002.71,0001.66,0000.77,0000.43,0000.28,0000.61,0000.46,0000.65,18.5,25.1,02.5,01.6,0673.5,31.0
2021-08-02T04:14:00Z,00000200,00000000,0003.39,0002.94,0001.67,0000.92,0000.26,0000.17,0000.77,0000.84,0000.61,18.4,25.0,02.6,01.7,0673.5,31.0
2021-08-02T04:15:00Z,00000200,00000000,0004.13,0002.76,0001.96,0000.81,0000.44,0000.29,0000.80,0000.96,0000.78,18.4,25.0,02.6,01.8,0673.5,31.0
2021-08-02T04:16:00Z,00000200,00000000,0005.20,0002.89,0001.71,0000.60,0000.25,0000.30,0000.66,0000.81,0000.51,18.4,25.0,02.7,01.8,0673.5,31.0
2021-08-02T04:17:00Z,00000200,00000000,0004.23,0003.32,0001.60,0000.93,0000.19,0000.11,0001.46,0001.04,0001.25,18.4,25.0,02.8,01.8,0673.5,31.0
2021-08-02T04:18:00Z,00000200,00000000,0004.80,0003.44,0001.84,0000.44,0000.70,0000.26,0001.06,0001.07,0000.48,18.5,25.0,02.9,01.9,0673.4,31.0
2021-08-02T04:19:00Z,00000200,00000000,0004.50,0003.72,0001.90,0000.53,0000.37,0000.17,0001.17,0001.26,0000.90,18.6,25.1,02.9,02.0,0673.4,31.0
2021-08-02T04:20:00Z,00000200,00000000,0004.23,0003.20,0001.94,0000.83,0000.41,0000.56,0000.89,0000.77,0000.84,18.7,25.1,03.0,02.0,0673.4,31.0
2021-08-02T04:21:00Z,00000200,00000000,0004.73,0003.25,0001.86,0000.95,0000.28,0000.34,0001.02,0000.74,0000.77,18.7,25.1,02.9,02.0,0673.4,31.0
2021-08-02T04:22:00Z,00000200,00000000,0004.91,0003.16,0001.72,0000.56,0000.28,0000.18,0000.86,0000.96,0000.21,18.7,25.2,02.9,02.0,0673.4,31.0
2021-08-02T04:23:00Z,00000200,00000000,0004.67,0003.43,0001.77,0001.02,0000.47,0000.21,0000.84,0000.85,0000.52,18.7,25.1,02.9,02.0,0673.3,31.0
2021-08-02T04:24:00Z,00000200,00000000,0003.88,0003.55,0001.75,0000.47,0000.47,0000.52,0001.35,0000.88,0000.96,18.7,25.1,02.9,01.9,0673.3,31.0
2021-08-02T04:25:00Z,00000200,00000000,0004.72,0002.76,0001.43,0000.59,0000.39,0000.17,0000.64,0000.45,0000.64,18.6,25.1,02.9,02.0,0673.3,31.0
2021-08-02T04:26:00Z,00000200,00000000,0003.76,0002.63,0001.42,0000.85,0000.24,0000.31,0000.59,0000.75,0000.42,18.6,25.1,02.7,01.8,0673.3,31.0
2021-08-02T04:27:00Z,00000200,00000000,0002.03,0001.71,0001.05,0000.64,0000.00,0000.43,0000.72,0000.38,0000.29,18.5,25.1,02.9,01.9,0673.3,31.0
2021-08-02T04:28:00Z,00000200,00000000,0002.58,0001.80,0001.22,0000.43,-000.29,0000.33,0000.38,0000.62,0000.35,18.5,25.0,02.8,01.9,0673.2,31.0
2021-08-02T04:29:00Z,00000200,00000000,0002.26,0001.74,0001.11,0000.05,-000.12,0000.34,0000.34,0000.09,0000.08,18.5,25.0,02.9,02.0,0673.2,31.0
2021-08-02T04:30:00Z,00000200,00000000,0002.24,0001.65,0000.77,0000.92,0000.17,-000.00,0000.30,0000.41,0000.20,18.5,25.0,02.8,01.9,0673.2,31.0
2021-08-02T04:31:00Z,00000200,00000000,0002.73,0001.82,0001.16,0000.32,0000.37,0000.36,0001.68,0001.74,0001.73,18.4,25.0,02.8,01.8,0673.2,31.0
2021-08-02T04:32:00Z,00000200,00000000,0001.64,0002.06,0000.88,0000.31,0000.14,0000.40,-000.23,-000.34,-000.37,18.4,25.0,03.0,02.0,0673.2,31.0
2021-08-02T04:33:00Z,00000200,00000000,0001.86,0001.73,0001.59,0000.21,0000.44,0000.60,0006.36,0006.81,0006.89,18.5,25.0,04.1,02.7,0673.3,31.0
2021-08-02T04:34:00Z,00000200,00000000,0000.86,0000.45,0000.32,0000.34,-000.10,-000.00,-003.57,-003.79,-004.02,18.6,25.1,05.2,03.5,0673.3,31.0
2021-08-02T04:35:00Z,00000200,00000000,0001.03,0000.48,0000.34,0000.08,0000.16,0000.09,-000.45,-001.00,-000.90,18.6,25.1,03.4,02.3,0673.3,31.0
2021-08-02T04:36:00Z,00000200,00000000,0001.78,0001.27,0000.64,0000.19,0000.16,0000.23,-000.24,-000.14,-000.22,18.6,25.1,02.8,01.9,0673.2,31.0
2021-08-02T04:37:00Z,00000200,00000000,0002.45,0001.72,0000.98,0000.11,0000.19,0000.24,0000.74,0000.49,0000.26,18.6,25.1,02.7,01.8,0673.2,31.0
2021-08-02T04:38:00Z,00000200,00000000,0000.70,0000.86,0000.17,0000.12,0000.09,0000.41,-000.20,0000.08,-000.09,18.6,25.1,02.8,01.9,0673.2,31.0
2021-08-02T04:39:00Z,00000200,00000000,0000.54,0000.37,0000.20,-000.38,-000.01,0000.09,0000.23,0000.10,0000.20,18.5,25.0,02.8,01.9,0673.2,31.0
2021-08-02T04:40:00Z,00000200,00000000,0000.73,0000.49,-000.02,0000.37,0000.25,0000.20,-000.36,-000.11,-000.03,18.5,25.0,02.7,01.8,0673.2,31.0
2021-08-02T04:41:00Z,00000200,00000000,0000.75,0000.50,0000.15,0000.52,-000.05,0000.19,0000.03,-000.26,-000.61,18.5,25.0,02.6,01.8,0673.1,31.0
2021-08-02T04:42:00Z,00000200,00000000,0001.33,0000.67,0000.45,0000.14,-000.03,-000.23,0000.63,0000.49,0000.85,18.4,25.0,02.6,01.8,0673.2,31.0
2021-08-02T04:43:00Z,00000200,00000000,0002.12,0001.11,0000.67,0000.86,0000.23,0000.02,0000.63,0000.74,0000.32,18.4,25.0,02.8,01.9,0673.2,31.0
2021-08-02T04:44:00Z,00000200,00000000,0001.99,0001.30,0000.51,0000.29,0000.26,0000.30,-000.04,-000.14,0000.17,18.4,24.9,02.9,01.9,0673.2,31.0
2021-08-02T04:45:00Z,00000200,00000000,0002.06,0001.67,0000.88,0000.36,0000.21,0000.19,0000.17,-000.05,-000.27,18.4,24.9,02.6,01.7,0673.2,31.0
2021-08-02T04:46:00Z,00000200,00000000,0002.63,0001.95,0001.10,0000.81,0000.39,0000.38,0000.74,0000.98,0000.74,18.4,24.9,02.5,01.7,0673.1,31.0
2021-08-02T04:47:00Z,00000200,00000000,0002.62,0002.30,0001.38,0001.17,0000.37,0000.71,0000.86,0000.80,0000.60,18.4,24.9,02.5,01.7,0673.1,31.0
2021-08-02T04:48:00Z,00000200,00000000,0003.52,0002.34,0001.35,0000.29,0000.27,0000.46,0000.79,0000.58,0000.64,18.5,24.9,02.4,01.6,0673.1,31.0
2021-08-02T04:49:00Z,00000200,00000000,0003.19,0002.56,0001.29,0000.16,0000.14,0000.60,0000.82,0000.67,0000.25,18.5,25.0,02.4,01.6,0673.1,31.0
2021-08-02T04:50:00Z,00000200,00000000,0003.20,0002.17,0001.23,0000.30,0000.43,0000.18,0000.12,0000.39,0000.28,18.6,25.0,02.4,01.6,0673.1,31.0
2021-08-02T04:51:00Z,00000200,00000000,0002.79,0001.70,0001.53,0000.94,0000.40,0000.29,0000.64,0000.32,0000.64,18.7,25.1,02.4,01.6,0673.1,31.0
2021-08-02T04:52:00Z,00000200,00000000,0003.30,0002.07,0001.17,0000.99,0000.10,0000.20,0000.50,0000.68,0000.14,18.7,25.1,02.3,01.5,0673.1,31.0
2021-08-02T04:53:00Z,00000200,00000000,0002.68,0002.09,0001.22,0000.77,0000.25,0000.36,0000.12,0000.10,0000.13,18.7,25.1,02.2,01.5,0673.1,31.0
2021-08-02T04:54:00Z,00000200,00000000,0002.45,0002.41,0001.27,0000.44,0000.09,0000.02,0001.08,0000.87,0000.63,18.6,25.0,02.2,01.5,0673.1,31.0
2021-08-02T04:55:00Z,00000200,00000000,0003.93,0002.74,0001.54,0000.47,0000.55,-000.04,0000.80,0000.52,0000.28,18.6,25.0,02.4,01.6,0673.1,31.0
2021-08-02T04:56:00Z,00000200,00000000,0004.27,0003.08,0001.58,0000.49,0000.36,0000.31,0000.78,0000.89,0000.61,18.6,25.0,02.3,01.6,0673.1,31.0
2021-08-02T04:57:00Z,00000200,40000000,,,,,,,0000.44,0000.54,0000.58,18.6,25.1,02.5,01.7,0673.1,31.0
2021-08-02T04:58:00Z,00000200,60000000,,,,,,,0000.25,0000.54,0000.42,18.2,25.1,02.6,01.7,0672.1,31.0
2021-08-02T04:59:00Z,00000200,20000000,,,,,,,-000.12,-000.19,-000.30,18.2,25.2,02.6,01.7,0672.0,31.0
